Nunarsuit

KL  EN  DA
ASIAQ
Weather Now GREENLAND SURVEY
Updated [WGT/WGST] Temperature [°C] Wind [m/s] Air pressure [hPa] Relative humidity [%] Precipitation [mm]
Present Wind chill Speed Max
23.02 11:00-7,5-12,63,1 ⇙4,6100252n/a
23.02 10:00-7,3-12,43,1 ⇙4,6100357n/a
23.02 09:00-7,6-13,74,1 ⇘6,2100456n/a
23.02 08:00-7,7-15,05,7 ⇘7,7100458n/a
23.02 07:00-7,4-15,36,7 ⇘9,3100561n/a
23.02 06:00-7,3-15,77,7 ⇘10,3100556n/a
23.02 05:00-7,4-15,87,7 ⇘10,8100657n/a
23.02 04:00-7,4-15,36,7 ⇘9,3100754n/a
23.02 03:00-7,4-15,06,2 ⇘8,8100753n/a
23.02 02:00-7,3-15,77,7 ⇘9,8100752n/a
23.02 01:00-7,2-15,37,2 ⇘12,4100753n/a
23.02 00:00-7,2-15,37,2 ⇘10,8100753n/a
22.02 23:00-6,9-15,17,7 ⇘10,3100754n/a
22.02 22:00-7,0-15,88,8 ⇘11,3100752n/a
22.02 21:00-7,0-16,09,3 ⇘12,9100651n/a
22.02 20:00-7,1-16,710,8 ⇘14,9100650n/a
22.02 19:00-7,0-17,011,8 ⇘14,9100649n/a
22.02 18:00-7,0-17,212,4 ⇘16,0100550n/a
22.02 17:00-7,1-17,813,9 ⇘17,5100448n/a
22.02 16:00-6,7-17,213,9 ⇘17,5100448n/a
22.02 15:00-6,7-17,113,4 ⇘16,5100348n/a
22.02 14:00-6,8-17,815,4 ⇘19,0100255n/a
22.02 13:00-6,3-16,713,9 ⇒18,0100155n/a
22.02 12:00-6,7-17,816,0 ⇘21,1100055n/a
22.02 11:00-7,1-18,516,5 ⇒21,6100051n/a
Position: (60.763611,-48.454444)

[Back]